owner,sensor,date,latitude,longitude,vertical_datum,sea_water_practical_salinity,qcFlag 
TABS,ioos:station:wmo:42043:1,2005-03-01T00:00:00Z,28.9818,-94.9186,2.0,26.35,11111222 
TABS,ioos:station:wmo:42043:1,2005-03-01T00:30:00Z,28.9818,-94.9186,2.0,26.53,11111222 
TABS,ioos:station:wmo:42043:1,2005-03-01T01:00:00Z,28.9818,-94.9186,2.0,26.54,11111222 
TABS,ioos:station:wmo:42043:1,2005-03-01T01:30:00Z,28.9818,-94.9186,2.0,26.59,11111222 
TABS,ioos:station:wmo:42043:1,2005-03-01T02:00:00Z,28.9818,-94.9186,2.0,26.61,11111222 
TABS,ioos:station:wmo:42043:1,2005-03-01T02:30:00Z,28.9818,-94.9186,2.0,26.65,11111222 
TABS,ioos:station:wmo:42043:1,2005-03-01T03:00:00Z,28.9818,-94.9186,2.0,26.65,11111222 
TABS,ioos:station:wmo:42043:1,2005-03-01T03:30:00Z,28.9818,-94.9186,2.0,26.64,11111222 
TABS,ioos:station:wmo:42043:1,2005-03-01T04:00:00Z,28.9818,-94.9186,2.0,26.63,11111222 
TABS,ioos:station:wmo:42043:1,2005-03-01T04:30:00Z,28.9818,-94.9186,2.0,26.51,11111222 
TABS,ioos:station:wmo:42043:1,2005-03-01T05:00:00Z,28.9818,-94.9186,2.0,26.46,11111222 
TABS,ioos:station:wmo:42043:1,2005-03-01T05:30:00Z,28.9818,-94.9186,2.0,26.4,11111222 
TABS,ioos:station:wmo:42043:1,2005-03-01T06:00:00Z,28.9818,-94.9186,2.0,26.3,11111222 
TABS,ioos:station:wmo:42043:1,2005-03-01T06:30:00Z,28.9818,-94.9186,2.0,26.27,11111222 
TABS,ioos:station:wmo:42043:1,2005-03-01T07:00:00Z,28.9818,-94.9186,2.0,26.14,11111222 
TABS,ioos:station:wmo:42043:1,2005-03-01T07:30:00Z,28.9818,-94.9186,2.0,26.08,11111222 
TABS,ioos:station:wmo:42043:1,2005-03-01T08:00:00Z,28.9818,-94.9186,2.0,25.99,11111222 
TABS,ioos:station:wmo:42043:1,2005-03-01T08:30:00Z,28.9818,-94.9186,2.0,25.95,11111222 
TABS,ioos:station:wmo:42043:1,2005-03-01T09:00:00Z,28.9818,-94.9186,2.0,26.03,11111222 
TABS,ioos:station:wmo:42043:1,2005-03-01T09:30:00Z,28.9818,-94.9186,2.0,25.7,11111222 
TABS,ioos:station:wmo:42043:1,2005-03-01T10:00:00Z,28.9818,-94.9186,2.0,25.28,11111222 
TABS,ioos:station:wmo:42043:1,2005-03-01T10:30:00Z,28.9818,-94.9186,2.0,25.1,11111222 
TABS,ioos:station:wmo:42043:1,2005-03-01T11:00:00Z,28.9818,-94.9186,2.0,24.96,11111222 
TABS,ioos:station:wmo:42043:1,2005-03-01T11:30:00Z,28.9818,-94.9186,2.0,24.73,11111222 
TABS,ioos:station:wmo:42043:1,2005-03-01T12:00:00Z,28.9818,-94.9186,2.0,24.42,11111222 
TABS,ioos:station:wmo:42043:1,2005-03-01T12:30:00Z,28.9818,-94.9186,2.0,24.19,11111222 
TABS,ioos:station:wmo:42043:1,2005-03-01T13:00:00Z,28.9818,-94.9186,2.0,24.02,11111222 
TABS,ioos:station:wmo:42043:1,2005-03-01T13:30:00Z,28.9818,-94.9186,2.0,23.94,11111222 
TABS,ioos:station:wmo:42043:1,2005-03-01T14:00:00Z,28.9818,-94.9186,2.0,24.02,11111222 
TABS,ioos:station:wmo:42043:1,2005-03-01T14:30:00Z,28.9818,-94.9186,2.0,24.06,11111222 
TABS,ioos:station:wmo:42043:1,2005-03-01T15:00:00Z,28.9818,-94.9186,2.0,24.08,11111222 
TABS,ioos:station:wmo:42043:1,2005-03-01T15:30:00Z,28.9818,-94.9186,2.0,24.17,11111222 
TABS,ioos:station:wmo:42043:1,2005-03-01T16:00:00Z,28.9818,-94.9186,2.0,23.97,11111222 
TABS,ioos:station:wmo:42043:1,2005-03-01T16:30:00Z,28.9818,-94.9186,2.0,24.18,11111222 
TABS,ioos:station:wmo:42043:1,2005-03-01T17:00:00Z,28.9818,-94.9186,2.0,24.39,11111222 
TABS,ioos:station:wmo:42043:1,2005-03-01T17:30:00Z,28.9818,-94.9186,2.0,24.51,11111222 
TABS,ioos:station:wmo:42043:1,2005-03-01T18:00:00Z,28.9818,-94.9186,2.0,24.57,11111222 
TABS,ioos:station:wmo:42043:1,2005-03-01T18:30:00Z,28.9818,-94.9186,2.0,24.68,11111222 
TABS,ioos:station:wmo:42043:1,2005-03-01T19:00:00Z,28.9818,-94.9186,2.0,24.87,11111222 
TABS,ioos:station:wmo:42043:1,2005-03-01T19:30:00Z,28.9818,-94.9186,2.0,24.99,11111222 
TABS,ioos:station:wmo:42043:1,2005-03-01T20:00:00Z,28.9818,-94.9186,2.0,25.12,11111222 
TABS,ioos:station:wmo:42043:1,2005-03-01T20:30:00Z,28.9818,-94.9186,2.0,25.34,11111222 
TABS,ioos:station:wmo:42043:1,2005-03-01T21:00:00Z,28.9818,-94.9186,2.0,25.65,11111222 
TABS,ioos:station:wmo:42043:1,2005-03-01T21:30:00Z,28.9818,-94.9186,2.0,26.04,11111222 
TABS,ioos:station:wmo:42043:1,2005-03-01T22:00:00Z,28.9818,-94.9186,2.0,26.66,11111222 
TABS,ioos:station:wmo:42043:1,2005-03-01T22:30:00Z,28.9818,-94.9186,2.0,26.9,11111222 
TABS,ioos:station:wmo:42043:1,2005-03-01T23:00:00Z,28.9818,-94.9186,2.0,27.21,11111222 
TABS,ioos:station:wmo:42043:1,2005-03-01T23:30:00Z,28.9818,-94.9186,2.0,27.4,11111222 
TABS,ioos:station:wmo:42043:1,2005-03-02T00:00:00Z,28.9818,-94.9186,2.0,27.59,11111222 
TABS,ioos:station:wmo:42043:1,2005-03-02T00:30:00Z,28.9818,-94.9186,2.0,27.77,11111222 
TABS,ioos:station:wmo:42043:1,2005-03-02T01:00:00Z,28.9818,-94.9186,2.0,27.91,11111222 
TABS,ioos:station:wmo:42043:1,2005-03-02T01:30:00Z,28.9818,-94.9186,2.0,28.07,11111222 
TABS,ioos:station:wmo:42043:1,2005-03-02T02:00:00Z,28.9818,-94.9186,2.0,28.21,11111222 
TABS,ioos:station:wmo:42043:1,2005-03-02T02:30:00Z,28.9818,-94.9186,2.0,28.3,11111222 
TABS,ioos:station:wmo:42043:1,2005-03-02T03:00:00Z,28.9818,-94.9186,2.0,28.35,11111222 
TABS,ioos:station:wmo:42043:1,2005-03-02T03:30:00Z,28.9818,-94.9186,2.0,28.43,11111222 
TABS,ioos:station:wmo:42043:1,2005-03-02T04:00:00Z,28.9818,-94.9186,2.0,28.51,11111222 
TABS,ioos:station:wmo:42043:1,2005-03-02T04:30:00Z,28.9818,-94.9186,2.0,28.58,11111222 
TABS,ioos:station:wmo:42043:1,2005-03-02T05:00:00Z,28.9818,-94.9186,2.0,28.68,11111222 
TABS,ioos:station:wmo:42043:1,2005-03-02T05:30:00Z,28.9818,-94.9186,2.0,28.77,11111222 
TABS,ioos:station:wmo:42043:1,2005-03-02T06:00:00Z,28.9818,-94.9186,2.0,28.85,11111222 
TABS,ioos:station:wmo:42043:1,2005-03-02T06:30:00Z,28.9818,-94.9186,2.0,28.95,11111222 
TABS,ioos:station:wmo:42043:1,2005-03-02T07:00:00Z,28.9818,-94.9186,2.0,28.98,11111222 
TABS,ioos:station:wmo:42043:1,2005-03-02T07:30:00Z,28.9818,-94.9186,2.0,29.07,11111222 
TABS,ioos:station:wmo:42043:1,2005-03-02T08:00:00Z,28.9818,-94.9186,2.0,29.11,11111222 
TABS,ioos:station:wmo:42043:1,2005-03-02T08:30:00Z,28.9818,-94.9186,2.0,29.2,11111222 
TABS,ioos:station:wmo:42043:1,2005-03-02T09:00:00Z,28.9818,-94.9186,2.0,29.25,11111222 
TABS,ioos:station:wmo:42043:1,2005-03-02T09:30:00Z,28.9818,-94.9186,2.0,29.34,11111222 
TABS,ioos:station:wmo:42043:1,2005-03-02T10:00:00Z,28.9818,-94.9186,2.0,29.4,11111222 
TABS,ioos:station:wmo:42043:1,2005-03-02T10:30:00Z,28.9818,-94.9186,2.0,29.42,11111222 
TABS,ioos:station:wmo:42043:1,2005-03-02T11:00:00Z,28.9818,-94.9186,2.0,29.44,11111222 
TABS,ioos:station:wmo:42043:1,2005-03-02T11:30:00Z,28.9818,-94.9186,2.0,29.42,11111222 
TABS,ioos:station:wmo:42043:1,2005-03-02T12:00:00Z,28.9818,-94.9186,2.0,29.4,11111222 
TABS,ioos:station:wmo:42043:1,2005-03-02T12:30:00Z,28.9818,-94.9186,2.0,29.35,11111222 
TABS,ioos:station:wmo:42043:1,2005-03-02T13:00:00Z,28.9818,-94.9186,2.0,29.3,11111222 
TABS,ioos:station:wmo:42043:1,2005-03-02T13:30:00Z,28.9818,-94.9186,2.0,29.28,11111222 
TABS,ioos:station:wmo:42043:1,2005-03-02T14:00:00Z,28.9818,-94.9186,2.0,29.23,11111222 
TABS,ioos:station:wmo:42043:1,2005-03-02T14:30:00Z,28.9818,-94.9186,2.0,29.2,11111222 
TABS,ioos:station:wmo:42043:1,2005-03-02T15:00:00Z,28.9818,-94.9186,2.0,29.2,11111222 
TABS,ioos:station:wmo:42043:1,2005-03-02T15:30:00Z,28.9818,-94.9186,2.0,29.09,11111222 
TABS,ioos:station:wmo:42043:1,2005-03-02T16:00:00Z,28.9818,-94.9186,2.0,29.1,11111222 
TABS,ioos:station:wmo:42043:1,2005-03-02T16:30:00Z,28.9818,-94.9186,2.0,28.69,11111222 
TABS,ioos:station:wmo:42043:1,2005-03-02T17:00:00Z,28.9818,-94.9186,2.0,27.79,11111222 
TABS,ioos:station:wmo:42043:1,2005-03-02T17:30:00Z,28.9818,-94.9186,2.0,27.3,11111222 
TABS,ioos:station:wmo:42043:1,2005-03-02T18:00:00Z,28.9818,-94.9186,2.0,27.23,11111222 
TABS,ioos:station:wmo:42043:1,2005-03-02T18:30:00Z,28.9818,-94.9186,2.0,27.19,11111222 
TABS,ioos:station:wmo:42043:1,2005-03-02T19:00:00Z,28.9818,-94.9186,2.0,27.4,11111222 
TABS,ioos:station:wmo:42043:1,2005-03-02T19:30:00Z,28.9818,-94.9186,2.0,27.34,11111222 
TABS,ioos:station:wmo:42043:1,2005-03-02T20:00:00Z,28.9818,-94.9186,2.0,27.0,11111222 
TABS,ioos:station:wmo:42043:1,2005-03-02T20:30:00Z,28.9818,-94.9186,2.0,27.57,11111222 
TABS,ioos:station:wmo:42043:1,2005-03-02T21:00:00Z,28.9818,-94.9186,2.0,28.74,11111222 
TABS,ioos:station:wmo:42043:1,2005-03-02T21:30:00Z,28.9818,-94.9186,2.0,29.3,11111222 
TABS,ioos:station:wmo:42043:1,2005-03-02T22:00:00Z,28.9818,-94.9186,2.0,29.17,11111222 
TABS,ioos:station:wmo:42043:1,2005-03-02T22:30:00Z,28.9818,-94.9186,2.0,29.01,11111222 
TABS,ioos:station:wmo:42043:1,2005-03-02T23:00:00Z,28.9818,-94.9186,2.0,29.05,11111222 
TABS,ioos:station:wmo:42043:1,2005-03-02T23:30:00Z,28.9818,-94.9186,2.0,28.9,11111222 
TABS,ioos:station:wmo:42043:1,2005-03-03T00:00:00Z,28.9818,-94.9186,2.0,28.84,11111222 
TABS,ioos:station:wmo:42043:1,2005-03-03T00:30:00Z,28.9818,-94.9186,2.0,28.76,11111222 
TABS,ioos:station:wmo:42043:1,2005-03-03T01:00:00Z,28.9818,-94.9186,2.0,28.22,11111222 
TABS,ioos:station:wmo:42043:1,2005-03-03T01:30:00Z,28.9818,-94.9186,2.0,27.96,11111222 
TABS,ioos:station:wmo:42043:1,2005-03-03T02:00:00Z,28.9818,-94.9186,2.0,27.72,11111222 
TABS,ioos:station:wmo:42043:1,2005-03-03T02:30:00Z,28.9818,-94.9186,2.0,27.38,11111222 
TABS,ioos:station:wmo:42043:1,2005-03-03T03:00:00Z,28.9818,-94.9186,2.0,27.06,11111222 
TABS,ioos:station:wmo:42043:1,2005-03-03T03:30:00Z,28.9818,-94.9186,2.0,26.84,11111222 
TABS,ioos:station:wmo:42043:1,2005-03-03T04:00:00Z,28.9818,-94.9186,2.0,26.88,11111222 
TABS,ioos:station:wmo:42043:1,2005-03-03T04:30:00Z,28.9818,-94.9186,2.0,26.68,11111222 
TABS,ioos:station:wmo:42043:1,2005-03-03T05:00:00Z,28.9818,-94.9186,2.0,26.91,11111222 
TABS,ioos:station:wmo:42043:1,2005-03-03T05:30:00Z,28.9818,-94.9186,2.0,27.44,11111222 
TABS,ioos:station:wmo:42043:1,2005-03-03T06:00:00Z,28.9818,-94.9186,2.0,27.72,11111222 
TABS,ioos:station:wmo:42043:1,2005-03-03T06:30:00Z,28.9818,-94.9186,2.0,26.68,11111222 
TABS,ioos:station:wmo:42043:1,2005-03-03T07:00:00Z,28.9818,-94.9186,2.0,26.43,11111222 
TABS,ioos:station:wmo:42043:1,2005-03-03T07:30:00Z,28.9818,-94.9186,2.0,26.1,11111222 
TABS,ioos:station:wmo:42043:1,2005-03-03T08:00:00Z,28.9818,-94.9186,2.0,25.86,11111222 
TABS,ioos:station:wmo:42043:1,2005-03-03T08:30:00Z,28.9818,-94.9186,2.0,25.6,11111222 
TABS,ioos:station:wmo:42043:1,2005-03-03T09:00:00Z,28.9818,-94.9186,2.0,25.22,11111222 
TABS,ioos:station:wmo:42043:1,2005-03-03T09:30:00Z,28.9818,-94.9186,2.0,24.72,11111222 
TABS,ioos:station:wmo:42043:1,2005-03-03T10:00:00Z,28.9818,-94.9186,2.0,24.11,11111222 
TABS,ioos:station:wmo:42043:1,2005-03-03T10:30:00Z,28.9818,-94.9186,2.0,23.84,11111222 
TABS,ioos:station:wmo:42043:1,2005-03-03T11:00:00Z,28.9818,-94.9186,2.0,23.81,11111222 
TABS,ioos:station:wmo:42043:1,2005-03-03T11:30:00Z,28.9818,-94.9186,2.0,23.48,11111222 
TABS,ioos:station:wmo:42043:1,2005-03-03T12:00:00Z,28.9818,-94.9186,2.0,23.64,11111222 
TABS,ioos:station:wmo:42043:1,2005-03-03T12:30:00Z,28.9818,-94.9186,2.0,23.92,11111222 
TABS,ioos:station:wmo:42043:1,2005-03-03T13:00:00Z,28.9818,-94.9186,2.0,22.92,11111222 
TABS,ioos:station:wmo:42043:1,2005-03-03T13:30:00Z,28.9818,-94.9186,2.0,22.81,11111222 
TABS,ioos:station:wmo:42043:1,2005-03-03T14:00:00Z,28.9818,-94.9186,2.0,23.12,11111222 
TABS,ioos:station:wmo:42043:1,2005-03-03T14:30:00Z,28.9818,-94.9186,2.0,23.02,11111222 
TABS,ioos:station:wmo:42043:1,2005-03-03T15:00:00Z,28.9818,-94.9186,2.0,23.05,11111222 
TABS,ioos:station:wmo:42043:1,2005-03-03T15:30:00Z,28.9818,-94.9186,2.0,24.62,11111222 
TABS,ioos:station:wmo:42043:1,2005-03-03T16:00:00Z,28.9818,-94.9186,2.0,25.04,11111222 
TABS,ioos:station:wmo:42043:1,2005-03-03T16:30:00Z,28.9818,-94.9186,2.0,25.34,11111222 
TABS,ioos:station:wmo:42043:1,2005-03-03T17:00:00Z,28.9818,-94.9186,2.0,27.07,11111222 
TABS,ioos:station:wmo:42043:1,2005-03-03T17:30:00Z,28.9818,-94.9186,2.0,25.95,11111222 
TABS,ioos:station:wmo:42043:1,2005-03-03T18:00:00Z,28.9818,-94.9186,2.0,26.85,11111222 
TABS,ioos:station:wmo:42043:1,2005-03-03T18:30:00Z,28.9818,-94.9186,2.0,26.37,11111222 
TABS,ioos:station:wmo:42043:1,2005-03-03T19:00:00Z,28.9818,-94.9186,2.0,27.02,11111222 
TABS,ioos:station:wmo:42043:1,2005-03-03T19:30:00Z,28.9818,-94.9186,2.0,25.46,11111222 
TABS,ioos:station:wmo:42043:1,2005-03-03T20:00:00Z,28.9818,-94.9186,2.0,25.27,11111222 
TABS,ioos:station:wmo:42043:1,2005-03-03T20:30:00Z,28.9818,-94.9186,2.0,25.23,11111222 
TABS,ioos:station:wmo:42043:1,2005-03-03T21:00:00Z,28.9818,-94.9186,2.0,25.2,11111222 
TABS,ioos:station:wmo:42043:1,2005-03-03T21:30:00Z,28.9818,-94.9186,2.0,24.37,11111222 
TABS,ioos:station:wmo:42043:1,2005-03-03T22:00:00Z,28.9818,-94.9186,2.0,24.26,11111222 
TABS,ioos:station:wmo:42043:1,2005-03-03T22:30:00Z,28.9818,-94.9186,2.0,24.35,11111222 
TABS,ioos:station:wmo:42043:1,2005-03-03T23:00:00Z,28.9818,-94.9186,2.0,23.4,11111222 
TABS,ioos:station:wmo:42043:1,2005-03-03T23:30:00Z,28.9818,-94.9186,2.0,23.82,11111222 
TABS,ioos:station:wmo:42043:1,2005-03-04T00:00:00Z,28.9818,-94.9186,2.0,23.91,11111222 
TABS,ioos:station:wmo:42043:1,2005-03-04T00:30:00Z,28.9818,-94.9186,2.0,23.7,11111222 
TABS,ioos:station:wmo:42043:1,2005-03-04T01:00:00Z,28.9818,-94.9186,2.0,23.86,11111222 
TABS,ioos:station:wmo:42043:1,2005-03-04T01:30:00Z,28.9818,-94.9186,2.0,24.62,11111222 
TABS,ioos:station:wmo:42043:1,2005-03-04T02:00:00Z,28.9818,-94.9186,2.0,24.43,11111222 
TABS,ioos:station:wmo:42043:1,2005-03-04T02:30:00Z,28.9818,-94.9186,2.0,24.22,11111222 
TABS,ioos:station:wmo:42043:1,2005-03-04T03:00:00Z,28.9818,-94.9186,2.0,25.38,11111222 
TABS,ioos:station:wmo:42043:1,2005-03-04T03:30:00Z,28.9818,-94.9186,2.0,26.91,11111222 
TABS,ioos:station:wmo:42043:1,2005-03-04T04:00:00Z,28.9818,-94.9186,2.0,26.75,11111222 
TABS,ioos:station:wmo:42043:1,2005-03-04T04:30:00Z,28.9818,-94.9186,2.0,26.57,11111222 
TABS,ioos:station:wmo:42043:1,2005-03-04T05:00:00Z,28.9818,-94.9186,2.0,26.76,11111222 
TABS,ioos:station:wmo:42043:1,2005-03-04T05:30:00Z,28.9818,-94.9186,2.0,27.44,11111222 
TABS,ioos:station:wmo:42043:1,2005-03-04T06:00:00Z,28.9818,-94.9186,2.0,27.47,11111222 
TABS,ioos:station:wmo:42043:1,2005-03-04T06:30:00Z,28.9818,-94.9186,2.0,27.66,11111222 
TABS,ioos:station:wmo:42043:1,2005-03-04T07:00:00Z,28.9818,-94.9186,2.0,27.86,11111222 
TABS,ioos:station:wmo:42043:1,2005-03-04T07:30:00Z,28.9818,-94.9186,2.0,27.91,11111222 
TABS,ioos:station:wmo:42043:1,2005-03-04T08:00:00Z,28.9818,-94.9186,2.0,27.84,11111222 
TABS,ioos:station:wmo:42043:1,2005-03-04T08:30:00Z,28.9818,-94.9186,2.0,27.72,11111222 
TABS,ioos:station:wmo:42043:1,2005-03-04T09:00:00Z,28.9818,-94.9186,2.0,27.76,11111222 
TABS,ioos:station:wmo:42043:1,2005-03-04T09:30:00Z,28.9818,-94.9186,2.0,27.51,11111222 
TABS,ioos:station:wmo:42043:1,2005-03-04T10:00:00Z,28.9818,-94.9186,2.0,26.96,11111222 
TABS,ioos:station:wmo:42043:1,2005-03-04T10:30:00Z,28.9818,-94.9186,2.0,26.91,11111222 
TABS,ioos:station:wmo:42043:1,2005-03-04T11:00:00Z,28.9818,-94.9186,2.0,26.52,11111222 
TABS,ioos:station:wmo:42043:1,2005-03-04T11:30:00Z,28.9818,-94.9186,2.0,27.04,11111222 
TABS,ioos:station:wmo:42043:1,2005-03-04T12:00:00Z,28.9818,-94.9186,2.0,27.41,11111222 
TABS,ioos:station:wmo:42043:1,2005-03-04T12:30:00Z,28.9818,-94.9186,2.0,26.93,11111222 
TABS,ioos:station:wmo:42043:1,2005-03-04T13:00:00Z,28.9818,-94.9186,2.0,26.95,11111222 
TABS,ioos:station:wmo:42043:1,2005-03-04T13:30:00Z,28.9818,-94.9186,2.0,27.49,11111222 
TABS,ioos:station:wmo:42043:1,2005-03-04T14:00:00Z,28.9818,-94.9186,2.0,27.82,11111222 
TABS,ioos:station:wmo:42043:1,2005-03-04T14:30:00Z,28.9818,-94.9186,2.0,27.98,11111222 
TABS,ioos:station:wmo:42043:1,2005-03-04T15:00:00Z,28.9818,-94.9186,2.0,28.22,11111222 
TABS,ioos:station:wmo:42043:1,2005-03-04T15:30:00Z,28.9818,-94.9186,2.0,28.5,11111222 
TABS,ioos:station:wmo:42043:1,2005-03-04T16:00:00Z,28.9818,-94.9186,2.0,28.86,11111222 
TABS,ioos:station:wmo:42043:1,2005-03-04T16:30:00Z,28.9818,-94.9186,2.0,28.96,11111222 
TABS,ioos:station:wmo:42043:1,2005-03-04T17:00:00Z,28.9818,-94.9186,2.0,28.92,11111222 
TABS,ioos:station:wmo:42043:1,2005-03-04T17:30:00Z,28.9818,-94.9186,2.0,29.02,11111222 
TABS,ioos:station:wmo:42043:1,2005-03-04T18:00:00Z,28.9818,-94.9186,2.0,28.79,11111222 
TABS,ioos:station:wmo:42043:1,2005-03-04T18:30:00Z,28.9818,-94.9186,2.0,28.71,11111222 
TABS,ioos:station:wmo:42043:1,2005-03-04T19:00:00Z,28.9818,-94.9186,2.0,28.61,11111222 
TABS,ioos:station:wmo:42043:1,2005-03-04T19:30:00Z,28.9818,-94.9186,2.0,28.68,11111222 
TABS,ioos:station:wmo:42043:1,2005-03-04T20:00:00Z,28.9818,-94.9186,2.0,28.77,11111222 
TABS,ioos:station:wmo:42043:1,2005-03-04T20:30:00Z,28.9818,-94.9186,2.0,28.75,11111222 
TABS,ioos:station:wmo:42043:1,2005-03-04T21:00:00Z,28.9818,-94.9186,2.0,29.87,11111222 
TABS,ioos:station:wmo:42043:1,2005-03-04T21:30:00Z,28.9818,-94.9186,2.0,28.37,11111222 
TABS,ioos:station:wmo:42043:1,2005-03-04T22:00:00Z,28.9818,-94.9186,2.0,28.9,11111222 
TABS,ioos:station:wmo:42043:1,2005-03-04T22:30:00Z,28.9818,-94.9186,2.0,27.08,11111222 
TABS,ioos:station:wmo:42043:1,2005-03-04T23:00:00Z,28.9818,-94.9186,2.0,29.21,11111222 
TABS,ioos:station:wmo:42043:1,2005-03-04T23:30:00Z,28.9818,-94.9186,2.0,26.99,11111222 
TABS,ioos:station:wmo:42043:1,2005-03-05T00:00:00Z,28.9818,-94.9186,2.0,29.16,11111222 
TABS,ioos:station:wmo:42043:1,2005-03-05T00:30:00Z,28.9818,-94.9186,2.0,28.16,11111222 
TABS,ioos:station:wmo:42043:1,2005-03-05T01:00:00Z,28.9818,-94.9186,2.0,28.74,11111222 
TABS,ioos:station:wmo:42043:1,2005-03-05T01:30:00Z,28.9818,-94.9186,2.0,29.45,11111222 
TABS,ioos:station:wmo:42043:1,2005-03-05T02:00:00Z,28.9818,-94.9186,2.0,28.92,11111222 
TABS,ioos:station:wmo:42043:1,2005-03-05T02:30:00Z,28.9818,-94.9186,2.0,29.55,11111222 
TABS,ioos:station:wmo:42043:1,2005-03-05T03:00:00Z,28.9818,-94.9186,2.0,28.64,11111222 
TABS,ioos:station:wmo:42043:1,2005-03-05T03:30:00Z,28.9818,-94.9186,2.0,29.18,11111222 
TABS,ioos:station:wmo:42043:1,2005-03-05T04:00:00Z,28.9818,-94.9186,2.0,29.04,11111222 
TABS,ioos:station:wmo:42043:1,2005-03-05T04:30:00Z,28.9818,-94.9186,2.0,29.26,11111222 
TABS,ioos:station:wmo:42043:1,2005-03-05T05:00:00Z,28.9818,-94.9186,2.0,29.56,11111222 
TABS,ioos:station:wmo:42043:1,2005-03-05T05:30:00Z,28.9818,-94.9186,2.0,29.45,11111222 
TABS,ioos:station:wmo:42043:1,2005-03-05T06:00:00Z,28.9818,-94.9186,2.0,29.19,11111222 
TABS,ioos:station:wmo:42043:1,2005-03-05T06:30:00Z,28.9818,-94.9186,2.0,29.13,11111222 
TABS,ioos:station:wmo:42043:1,2005-03-05T07:00:00Z,28.9818,-94.9186,2.0,29.08,11111222 
TABS,ioos:station:wmo:42043:1,2005-03-05T07:30:00Z,28.9818,-94.9186,2.0,29.11,11111222 
TABS,ioos:station:wmo:42043:1,2005-03-05T08:00:00Z,28.9818,-94.9186,2.0,29.13,11111222 
TABS,ioos:station:wmo:42043:1,2005-03-05T08:30:00Z,28.9818,-94.9186,2.0,28.95,11111222 
TABS,ioos:station:wmo:42043:1,2005-03-05T09:00:00Z,28.9818,-94.9186,2.0,28.92,11111222 
TABS,ioos:station:wmo:42043:1,2005-03-05T09:30:00Z,28.9818,-94.9186,2.0,28.93,11111222 
TABS,ioos:station:wmo:42043:1,2005-03-05T10:00:00Z,28.9818,-94.9186,2.0,28.81,11111222 
TABS,ioos:station:wmo:42043:1,2005-03-05T10:30:00Z,28.9818,-94.9186,2.0,28.47,11111222 
TABS,ioos:station:wmo:42043:1,2005-03-05T11:00:00Z,28.9818,-94.9186,2.0,28.2,11111222 
TABS,ioos:station:wmo:42043:1,2005-03-05T11:30:00Z,28.9818,-94.9186,2.0,28.17,11111222 
TABS,ioos:station:wmo:42043:1,2005-03-05T12:00:00Z,28.9818,-94.9186,2.0,27.75,11111222 
TABS,ioos:station:wmo:42043:1,2005-03-05T12:30:00Z,28.9818,-94.9186,2.0,27.82,11111222 
TABS,ioos:station:wmo:42043:1,2005-03-05T13:00:00Z,28.9818,-94.9186,2.0,27.98,11111222 
TABS,ioos:station:wmo:42043:1,2005-03-05T13:30:00Z,28.9818,-94.9186,2.0,28.54,11111222 
TABS,ioos:station:wmo:42043:1,2005-03-05T14:00:00Z,28.9818,-94.9186,2.0,28.98,11111222 
TABS,ioos:station:wmo:42043:1,2005-03-05T14:30:00Z,28.9818,-94.9186,2.0,29.27,11111222 
TABS,ioos:station:wmo:42043:1,2005-03-05T15:00:00Z,28.9818,-94.9186,2.0,29.34,11111222 
TABS,ioos:station:wmo:42043:1,2005-03-05T15:30:00Z,28.9818,-94.9186,2.0,29.03,11111222 
TABS,ioos:station:wmo:42043:1,2005-03-05T16:00:00Z,28.9818,-94.9186,2.0,28.03,11111222 
TABS,ioos:station:wmo:42043:1,2005-03-05T16:30:00Z,28.9818,-94.9186,2.0,28.43,11111222 
TABS,ioos:station:wmo:42043:1,2005-03-05T17:00:00Z,28.9818,-94.9186,2.0,28.51,11111222 
TABS,ioos:station:wmo:42043:1,2005-03-05T17:30:00Z,28.9818,-94.9186,2.0,28.3,11111222 
TABS,ioos:station:wmo:42043:1,2005-03-05T18:00:00Z,28.9818,-94.9186,2.0,28.98,11111222 
TABS,ioos:station:wmo:42043:1,2005-03-05T18:30:00Z,28.9818,-94.9186,2.0,29.15,11111222 
TABS,ioos:station:wmo:42043:1,2005-03-05T19:00:00Z,28.9818,-94.9186,2.0,29.22,11111222 
TABS,ioos:station:wmo:42043:1,2005-03-05T19:30:00Z,28.9818,-94.9186,2.0,29.4,11111222 
TABS,ioos:station:wmo:42043:1,2005-03-05T20:00:00Z,28.9818,-94.9186,2.0,29.47,11111222 
TABS,ioos:station:wmo:42043:1,2005-03-05T20:30:00Z,28.9818,-94.9186,2.0,29.64,11111222 
TABS,ioos:station:wmo:42043:1,2005-03-05T21:00:00Z,28.9818,-94.9186,2.0,29.8,11111222 
TABS,ioos:station:wmo:42043:1,2005-03-05T21:30:00Z,28.9818,-94.9186,2.0,29.95,11111222 
TABS,ioos:station:wmo:42043:1,2005-03-05T22:00:00Z,28.9818,-94.9186,2.0,30.48,11111222 
TABS,ioos:station:wmo:42043:1,2005-03-05T22:30:00Z,28.9818,-94.9186,2.0,30.71,11111222 
TABS,ioos:station:wmo:42043:1,2005-03-05T23:00:00Z,28.9818,-94.9186,2.0,30.94,11111222 
TABS,ioos:station:wmo:42043:1,2005-03-05T23:30:00Z,28.9818,-94.9186,2.0,31.61,11111222 
TABS,ioos:station:wmo:42043:1,2005-03-06T00:00:00Z,28.9818,-94.9186,2.0,31.21,11111222 
TABS,ioos:station:wmo:42043:1,2005-03-06T00:30:00Z,28.9818,-94.9186,2.0,31.41,11111222 
TABS,ioos:station:wmo:42043:1,2005-03-06T01:00:00Z,28.9818,-94.9186,2.0,31.58,11111222 
TABS,ioos:station:wmo:42043:1,2005-03-06T01:30:00Z,28.9818,-94.9186,2.0,31.79,11111222 
TABS,ioos:station:wmo:42043:1,2005-03-06T02:30:00Z,28.9818,-94.9186,2.0,32.34,11111222 
TABS,ioos:station:wmo:42043:1,2005-03-06T03:00:00Z,28.9818,-94.9186,2.0,32.45,11111222 
TABS,ioos:station:wmo:42043:1,2005-03-06T03:30:00Z,28.9818,-94.9186,2.0,32.62,11111222 
TABS,ioos:station:wmo:42043:1,2005-03-06T04:00:00Z,28.9818,-94.9186,2.0,32.74,11111222 
TABS,ioos:station:wmo:42043:1,2005-03-06T04:30:00Z,28.9818,-94.9186,2.0,32.78,11111222 
TABS,ioos:station:wmo:42043:1,2005-03-06T05:00:00Z,28.9818,-94.9186,2.0,32.78,11111222 
TABS,ioos:station:wmo:42043:1,2005-03-06T05:30:00Z,28.9818,-94.9186,2.0,32.77,11111222 
TABS,ioos:station:wmo:42043:1,2005-03-06T06:00:00Z,28.9818,-94.9186,2.0,32.79,11111222 
TABS,ioos:station:wmo:42043:1,2005-03-06T06:30:00Z,28.9818,-94.9186,2.0,32.79,11111222 
TABS,ioos:station:wmo:42043:1,2005-03-06T07:00:00Z,28.9818,-94.9186,2.0,32.74,11111222 
TABS,ioos:station:wmo:42043:1,2005-03-06T07:30:00Z,28.9818,-94.9186,2.0,32.73,11111222 
TABS,ioos:station:wmo:42043:1,2005-03-06T08:00:00Z,28.9818,-94.9186,2.0,32.7,11111222 
TABS,ioos:station:wmo:42043:1,2005-03-06T08:30:00Z,28.9818,-94.9186,2.0,32.7,11111222 
TABS,ioos:station:wmo:42043:1,2005-03-06T09:00:00Z,28.9818,-94.9186,2.0,32.71,11111222 
TABS,ioos:station:wmo:42043:1,2005-03-06T09:30:00Z,28.9818,-94.9186,2.0,32.69,11111222 
TABS,ioos:station:wmo:42043:1,2005-03-06T10:00:00Z,28.9818,-94.9186,2.0,32.69,11111222 
TABS,ioos:station:wmo:42043:1,2005-03-06T10:30:00Z,28.9818,-94.9186,2.0,32.68,11111222 
TABS,ioos:station:wmo:42043:1,2005-03-06T11:00:00Z,28.9818,-94.9186,2.0,32.66,11111222 
TABS,ioos:station:wmo:42043:1,2005-03-06T11:30:00Z,28.9818,-94.9186,2.0,32.66,11111222 
TABS,ioos:station:wmo:42043:1,2005-03-06T12:00:00Z,28.9818,-94.9186,2.0,32.63,11111222 
TABS,ioos:station:wmo:42043:1,2005-03-06T12:30:00Z,28.9818,-94.9186,2.0,32.65,11111222 
TABS,ioos:station:wmo:42043:1,2005-03-06T13:00:00Z,28.9818,-94.9186,2.0,32.65,11111222 
TABS,ioos:station:wmo:42043:1,2005-03-06T13:30:00Z,28.9818,-94.9186,2.0,32.64,11111222 
TABS,ioos:station:wmo:42043:1,2005-03-06T14:00:00Z,28.9818,-94.9186,2.0,32.64,11111222 
TABS,ioos:station:wmo:42043:1,2005-03-06T14:30:00Z,28.9818,-94.9186,2.0,32.65,11111222 
TABS,ioos:station:wmo:42043:1,2005-03-06T15:00:00Z,28.9818,-94.9186,2.0,32.66,11111222 
TABS,ioos:station:wmo:42043:1,2005-03-06T15:30:00Z,28.9818,-94.9186,2.0,32.67,11111222 
TABS,ioos:station:wmo:42043:1,2005-03-06T16:00:00Z,28.9818,-94.9186,2.0,32.68,11111222 